Ellsworth AFB, SD

11:37 PM MST on November 19, 2017 (GMT -0700)
Ellsworth Air Force Base

Weather History for KRCA - February, 2014

Change the Weather History Date:

Tuesday, February 4, 2014

  Actual Average Record
Temperature  
Mean Temperature 3 °F -  
Max Temperature 8 °F 37 °F 71 °F (2005)
Min Temperature -2 °F 15 °F -2 °F (2014)
Degree Days  
Heating Degree Days 62    
Moisture  
Dew Point -5 °F    
Average Humidity 79    
Maximum Humidity 86    
Minimum Humidity 72    
Precipitation  
Precipitation 0.00 in - - ()
Snow  
Snow 0.00 in - - ()
Snow Depth 2.00 in    
Sea Level Pressure  
Sea Level Pressure 30.41 in    
Wind  
Wind Speed 8 mph (NNE)    
Max Wind Speed 13 mph    
Max Gust Speed -    
Visibility 5 miles    
Events Rain , Snow    
Averages and records for this station are not official NWS values.
T = Trace of Precipitation, MM = Missing Value Source: NWS Daily Summary

Daily Weather History Graph

Daily Weather History Graph

Search for Another Location

Airport or City:

Trip Planner

Search our weather history database for the weather conditions in past years. The results will help you decide how hot, cold, wet, or windy it might be!

Date:

Astronomy

Feb. 04, 2014 Rise Set
Actual Time 7:06 AM MST 5:06 PM MST
Civil Twilight 6:36 AM MST 5:37 PM MST
Nautical Twilight 6:01 AM MST 6:11 PM MST
Astronomical Twilight 5:27 AM MST 6:45 PM MST
Moon 9:32 AM MST (2/4) 11:17 PM MST (2/4)
Length of Visible Light 11h 01m
Length of Day
10h 00m
Waxing Crescent, 29% of the Moon is Illuminated
Feb 4
Waxing Crescent
Feb 6
First Quarter
Feb 14
Full
Feb 22
Last Quarter
Mar 1
New

Hourly Weather History & Observations

Time (MST) Temp. Windchill Dew Point Humidity Pressure Visibility Wind Dir Wind Speed Gust Speed Precip Events Conditions
12:13 AM 8.6 °F -2.6 °F 5.0 °F 85% 30.18 in 6.0 mi East 6.9 mph - N/A Snow Light Snow
12:58 AM 7.7 °F -7.4 °F 4.3 °F 86% 30.40 in 4.0 mi ENE 11.5 mph - 0.00 in Snow Light Snow
1:55 AM 5.0 °F -10.0 °F 1.4 °F 85% 30.21 in 6.0 mi ENE 10.4 mph - N/A Snow Light Snow
1:58 AM 4.3 °F -11.7 °F 0.5 °F 84% 30.42 in 6.0 mi ENE 11.5 mph - 0.00 in Snow Light Snow
2:58 AM 3.2 °F -7.8 °F -0.8 °F 84% 30.42 in 4.0 mi East 5.8 mph - 0.00 in Snow Light Snow
3:58 AM 1.4 °F -12.5 °F -2.2 °F 85% 30.22 in 4.0 mi ENE 8.1 mph - N/A Snow Light Snow
4:36 AM 1.4 °F -15.3 °F -2.2 °F 85% 30.23 in 5.0 mi NE 11.5 mph - N/A Snow Light Snow
4:50 AM 1.4 °F -11.3 °F -4.0 °F 78% 30.25 in 9.0 mi NNE 6.9 mph - N/A Snow Light Snow
4:58 AM 1.4 °F -11.3 °F -4.0 °F 78% 30.48 in 9.0 mi NNE 6.9 mph - N/A Snow Light Snow
5:10 AM 1.4 °F -11.3 °F -4.0 °F 78% 30.48 in 9.0 mi NNE 6.9 mph - N/A Snow Light Snow
5:20 AM -0.4 °F -13.4 °F -4.0 °F 85% 30.25 in 9.0 mi NNE 6.9 mph - N/A Snow Light Snow
5:37 AM -0.4 °F -13.4 °F -4.0 °F 85% 30.26 in 7.0 mi NE 6.9 mph - N/A Snow Light Snow
5:44 AM -0.4 °F -13.4 °F -4.0 °F 85% 30.26 in 6.0 mi ENE 6.9 mph - N/A Snow Light Snow
5:52 AM -0.4 °F -13.4 °F -4.0 °F 85% 30.26 in 6.0 mi ENE 6.9 mph - N/A Rain Light Freezing Rain
5:58 AM -0.4 °F -14.7 °F -4.5 °F 83% 30.50 in 6.0 mi ENE 8.1 mph - 0.00 in Snow Light Snow
6:29 AM -2.2 °F -16.8 °F -5.8 °F 85% 30.27 in 7.0 mi East 8.1 mph - N/A Snow Light Snow
6:58 AM -2.2 °F -14.2 °F -5.8 °F 85% 30.29 in 5.0 mi East 5.8 mph - N/A Snow Light Snow
7:19 AM -2.2 °F -14.2 °F -5.8 °F 85% 30.29 in 4.0 mi East 5.8 mph - N/A Snow Light Snow
7:35 AM -2.2 °F -12.5 °F -5.8 °F 85% 30.30 in 1.0 mi ENE 4.6 mph - N/A Snow Light Snow
7:46 AM -2.2 °F -14.2 °F -5.8 °F 85% 30.30 in 1.0 mi ENE 5.8 mph - N/A Snow Light Snow
7:56 AM -2.2 °F -14.2 °F -5.8 °F 85% 30.30 in 1.2 mi ENE 5.8 mph - N/A Snow Light Snow
7:58 AM -2.2 °F -14.2 °F -5.8 °F 85% 30.55 in 1.0 mi ENE 5.8 mph - 0.00 in Snow Light Snow
8:04 AM -2.2 °F -15.6 °F -5.8 °F 85% 30.31 in 1.0 mi NE 6.9 mph - N/A Snow Light Snow
8:10 AM -2.2 °F -14.2 °F -5.8 °F 85% 30.31 in 1.0 mi NE 5.8 mph - N/A Snow Light Snow
8:41 AM -2.2 °F -16.8 °F -5.8 °F 85% 30.32 in 1.5 mi NE 8.1 mph - N/A Snow Light Snow
8:46 AM -2.2 °F -18.0 °F -5.8 °F 85% 30.32 in 2.0 mi NE 9.2 mph - N/A Snow Light Snow
8:56 AM -2.2 °F -16.8 °F -5.8 °F 85% 30.32 in 1.0 mi NE 8.1 mph - N/A Snow Light Snow
8:58 AM -2.0 °F -13.9 °F -6.5 °F 81% 30.57 in 1.0 mi NE 5.8 mph - 0.00 in Snow Light Snow
9:27 AM -2.2 °F -18.0 °F -7.6 °F 78% 30.32 in 2.0 mi NE 9.2 mph - N/A Snow Light Snow
9:55 AM -2.2 °F -18.9 °F -7.6 °F 78% 30.33 in 2.0 mi NE 10.4 mph - N/A Snow Light Snow
9:58 AM -1.5 °F -18.1 °F -7.1 °F 77% 30.58 in 4.0 mi NE 10.4 mph - 0.00 in Snow Light Snow
10:03 AM -0.4 °F -14.7 °F -5.8 °F 78% 30.34 in 2.0 mi NE 8.1 mph - N/A Snow Light Snow
10:13 AM -0.4 °F -15.7 °F -5.8 °F 78% 30.34 in 2.0 mi NE 9.2 mph - N/A Snow Light Snow
10:31 AM -0.4 °F -14.7 °F -7.6 °F 72% 30.34 in 2.0 mi NE 8.1 mph - N/A Snow Light Snow
10:58 AM -0.4 °F -17.6 °F -6.5 °F 75% 30.58 in 2.0 mi NNE 11.5 mph - 0.00 in Snow Light Snow
11:10 AM -0.4 °F -15.7 °F -5.8 °F 78% 30.34 in 6.0 mi NNE 9.2 mph - N/A   Overcast
11:26 AM -0.4 °F -14.7 °F -7.6 °F 72% 30.33 in 2.0 mi NE 8.1 mph - N/A Snow Light Snow
11:43 AM -0.4 °F -14.7 °F -7.6 °F 72% 30.33 in 2.0 mi NNE 8.1 mph - N/A Snow Light Snow
12:27 PM 1.4 °F -12.5 °F -5.8 °F 72% 30.32 in 2.0 mi NNE 8.1 mph - N/A Snow Light Snow
12:58 PM 1.4 °F -12.5 °F -5.4 °F 73% 30.57 in 2.0 mi NNE 8.1 mph - 0.00 in Snow Light Snow
1:17 PM 1.4 °F -12.5 °F -5.8 °F 72% 30.34 in 2.0 mi North 8.1 mph - N/A Snow Light Snow
1:24 PM 1.4 °F -11.3 °F -5.8 °F 72% 30.34 in 2.5 mi NNE 6.9 mph - N/A Snow Light Snow
1:45 PM 1.4 °F -9.9 °F -5.8 °F 72% 30.34 in 2.5 mi NNE 5.8 mph - N/A Snow Light Snow
1:58 PM 1.4 °F -9.9 °F -5.1 °F 74% 30.59 in 2.0 mi NNE 5.8 mph - 0.00 in Snow Light Snow
2:20 PM 1.4 °F -11.3 °F -5.8 °F 72% 30.35 in 2.0 mi North 6.9 mph - N/A Snow Light Snow
2:29 PM 1.4 °F -11.3 °F -5.8 °F 72% 30.36 in 2.0 mi North 6.9 mph - N/A Snow Light Snow
2:50 PM 1.4 °F -13.5 °F -5.8 °F 72% 30.37 in 2.0 mi North 9.2 mph - N/A Snow Light Snow
2:58 PM 1.2 °F -13.7 °F -4.9 °F 75% 30.62 in 2.0 mi North 9.2 mph - 0.00 in Snow Light Snow
3:03 PM 1.4 °F -12.5 °F -5.8 °F 72% 30.37 in 1.5 mi North 8.1 mph - N/A Snow Light Snow
3:54 PM 1.4 °F -13.5 °F -5.8 °F 72% 30.38 in 3.0 mi North 9.2 mph - N/A Snow Light Snow
3:58 PM 0.9 °F -14.2 °F -5.8 °F 74% 30.64 in 3.0 mi North 9.2 mph - 0.00 in Snow Light Snow
4:59 PM 1.4 °F -13.5 °F -5.8 °F 72% 30.39 in 6.0 mi North 9.2 mph - N/A Snow Light Snow
5:17 PM 1.4 °F -14.5 °F -4.0 °F 78% 30.40 in 4.0 mi NNW 10.4 mph - N/A Snow Light Snow
5:34 PM 1.4 °F -15.3 °F -4.0 °F 78% 30.40 in 5.0 mi NNW 11.5 mph - N/A Snow Blowing Snow
5:44 PM 1.4 °F -14.5 °F -4.0 °F 78% 30.40 in 2.5 mi North 10.4 mph - N/A Snow Light Snow
5:49 PM 1.4 °F -14.5 °F -4.0 °F 78% 30.40 in 3.0 mi NNW 10.4 mph - N/A Snow Light Snow
5:58 PM 0.7 °F -15.4 °F -4.5 °F 79% 30.66 in 5.0 mi NNW 10.4 mph - 0.00 in Snow Light Snow
6:38 PM -0.4 °F -16.7 °F -5.8 °F 78% 30.41 in 6.0 mi NNW 10.4 mph - N/A Snow Light Snow
6:43 PM -0.4 °F -14.7 °F -4.0 °F 85% 30.41 in 6.0 mi NNW 8.1 mph - N/A Snow Light Snow
6:58 PM 0.1 °F -14.0 °F -4.9 °F 79% 30.68 in 10.0 mi NW 8.1 mph - 0.00 in   Mostly Cloudy
7:04 PM -0.4 °F -14.7 °F -5.8 °F 78% 30.42 in 10.0 mi NNW 8.1 mph - N/A   Mostly Cloudy
7:14 PM -0.4 °F -15.7 °F -5.8 °F 78% 30.42 in 10.0 mi NNW 9.2 mph - N/A   Scattered Clouds
7:24 PM -0.4 °F -15.7 °F -5.8 °F 78% 30.42 in 10.0 mi NW 9.2 mph - N/A   Mostly Cloudy
7:29 PM -0.4 °F -15.7 °F -5.8 °F 78% 30.42 in 6.0 mi NW 9.2 mph - N/A Snow Light Snow
7:34 PM -0.4 °F -16.7 °F -5.8 °F 78% 30.42 in 6.0 mi NW 10.4 mph - N/A Snow Light Snow
7:39 PM -0.4 °F -16.7 °F -5.8 °F 78% 30.42 in 6.0 mi NW 10.4 mph - N/A Snow Light Snow
7:47 PM -0.4 °F -16.7 °F -5.8 °F 78% 30.43 in 6.0 mi NW 10.4 mph - N/A Snow Light Snow
7:58 PM -0.6 °F -16.9 °F -5.6 °F 79% 30.70 in 5.0 mi NW 10.4 mph - 0.00 in Snow Light Snow
8:15 PM -0.4 °F -16.7 °F -5.8 °F 78% 30.43 in 5.0 mi NNW 10.4 mph - N/A Snow Light Snow
8:58 PM -1.7 °F -18.3 °F -6.3 °F 80% 30.72 in 9.0 mi NW 10.4 mph - 0.00 in   Overcast
9:08 PM -2.2 °F -18.9 °F -5.8 °F 85% 30.45 in 10.0 mi NW 10.4 mph - N/A   Overcast
9:18 PM -2.2 °F -18.9 °F -5.8 °F 85% 30.45 in 10.0 mi NW 10.4 mph - N/A   Overcast
9:19 PM -2.2 °F -18.0 °F -5.8 °F 85% 30.45 in 10.0 mi NW 9.2 mph - N/A Snow Light Snow
9:24 PM -0.4 °F -15.7 °F -5.8 °F 78% 30.45 in 10.0 mi NW 9.2 mph - N/A Snow Light Snow
9:29 PM -0.4 °F -15.7 °F -5.8 °F 78% 30.45 in 10.0 mi NW 9.2 mph - N/A Snow Light Snow
9:43 PM -0.4 °F -16.7 °F -5.8 °F 78% 30.45 in 10.0 mi NW 10.4 mph - N/A Snow Light Snow
9:57 PM -0.4 °F -15.7 °F -6.5 °F 75% 30.72 in 6.0 mi NW 9.2 mph - 0.00 in Snow Light Snow
11:05 PM -0.4 °F -15.7 °F -5.8 °F 78% 30.74 in 5.0 mi NNW 9.2 mph - N/A Snow Light Snow
11:44 PM 1.4 °F -14.5 °F -5.8 °F 72% 30.47 in 6.0 mi NNW 10.4 mph - N/A Snow Light Snow
11:58 PM 0.7 °F -17.0 °F -4.9 °F 77% 30.74 in 10.0 mi NNW 12.7 mph - 0.00 in   Overcast